#timestamp,LO_Frequency,Hit,StdDev 
1687377615.6,286047002.6,N
1687377635.5,286047002.5,N
1687377655.3,286047002.4,N
1687377675.2,286047000.0,N
1687377695.9,286047000.3,N
1687377715.7,286046999.7,N
1687377735.6,286047000.0,N
1687377755.4,286047002.2,N
1687377775.3,286047001.9,N
1687377795.1,286047002.1,N
1687377796.0,286047002.1,N
1687377815.8,286047002.6,N
1687377835.7,286047002.6,N
1687377855.5,286047002.0,N
1687377875.3,286047002.2,N
1687377895.2,286047002.0,N
1687377915.0,286047004.4,Y
1687377915.9,286047004.4,P
1687377935.8,286047002.6,N
1687377955.6,286047000.5,N
1687377975.4,286046999.9,N
1687377995.3,286047000.3,N
1687378015.1,286047002.3,N
1687378035.9,286047002.3,N
1687378055.7,286046999.9,N
1687378075.5,286046999.7,N
1687378095.4,286047002.8,N
1687378115.2,286047002.4,N
1687378135.0,286047002.4,N
1687378135.9,286047002.4,N
1687378155.8,286047002.6,N
1687378175.6,286046999.8,N
1687378195.5,286047000.4,N
1687378215.3,286047000.4,N
1687378235.1,286047000.9,N
1687378255.9,286047000.8,N
1687378275.7,286047000.9,N
1687378295.6,286047000.0,N
1687378315.4,286046999.8,N
1687378335.2,286047000.5,N
1687378355.1,286047000.8,N
1687378356.0,286047000.8,N
1687378375.8,286047000.4,N
1687378395.7,286046999.9,N
1687378415.5,286047000.1,N
1687378435.3,286047002.7,N
1687378455.2,286047002.8,N
1687378475.0,286047002.7,N
1687378475.9,286047002.7,N
1687378495.7,286046999.8,N
1687378515.6,286047000.3,N
1687378535.4,286047000.2,N
1687378555.3,286046999.8,N
1687378575.1,286047002.5,N
1687378595.8,286047002.0,N
1687378615.7,286047002.0,N
1687378635.5,286047001.9,N
1687378655.4,286047002.0,N
1687378675.2,286047002.6,N
1687378695.0,286047004.0,Y
1687378695.9,286047004.0,P
1687378715.8,286046999.8,N
1687378735.6,286047000.4,N
1687378755.4,286047000.3,N
1687378775.3,286047001.2,N
1687378795.1,286047000.9,N
1687378815.9,286047000.8,N
1687378835.7,286047001.0,N
1687378855.5,286047000.0,N
1687378875.4,286047000.0,N
1687378895.2,286046999.9,N
1687378915.0,286047002.8,N
1687378915.9,286047002.8,N
1687378935.8,286047002.1,N
1687378955.6,286047002.6,N
1687378975.5,286047002.3,N
1687378995.3,286047001.8,N
1687379015.1,286047002.1,N
1687379035.9,286047002.2,N
1687379055.7,286047002.6,N
1687379075.5,286046999.7,N
1687379095.4,286047000.5,N
1687379115.2,286047000.4,N
1687379135.1,286047000.9,N
1687379136.0,286047000.9,N
1687379155.8,286047000.4,N
1687379175.6,286047002.8,N
1687379195.5,286047002.7,N
1687379215.3,286047002.4,N
1687379235.1,286047000.1,N
1687379255.9,286047000.5,N
1687379275.7,286047002.5,N
1687379295.6,286047000.0,N
1687379315.4,286047002.7,N
1687379335.2,286047000.1,N
1687379355.1,286047002.7,N
1687379356.0,286047002.7,N
1687379375.8,286047002.6,N
1687379395.7,286046999.8,N
1687379415.5,286047000.1,N
1687379435.3,286047002.1,N
1687379455.2,286047002.8,N
1687379475.9,286047002.1,N
1687379495.7,286047002.3,N
1687379515.6,286046999.8,N
1687379535.4,286047002.4,N
1687379555.3,286047002.2,N
1687379575.1,286047002.1,N
1687379576.0,286047002.1,N
1687379595.8,286047002.2,N
1687379615.7,286047002.1,N
1687379635.5,286047002.2,N
1687379655.3,286047002.8,N
1687379675.2,286047002.0,N
1687379695.0,286047002.8,N
1687379695.9,286047002.8,N
1687379715.8,286047002.0,N
1687379735.6,286047002.5,N
1687379755.4,286047002.7,N
1687379775.3,286047002.1,N
1687379795.1,286047001.6,N
1687379815.8,286047001.7,N
1687379835.7,286047002.0,N
1687379855.5,286047001.5,N
1687379875.4,286047001.3,N
1687379895.2,286047004.2,Y
1687379915.0,286047001.3,P
1687379915.9,286047001.3,P
1687379935.8,286047001.6,P
1687379955.6,286047001.9,Y
1687379975.5,286047000.3,P
1687379995.3,286047000.6,N
1687380015.1,286046998.1,P
1687380035.9,286047000.6,N
1687380055.7,286047000.8,N
1687380075.6,286047001.1,N
1687380095.4,286046998.1,N
1687380115.2,286046998.3,N
1687380135.1,286046998.3,N
1687380136.0,286046998.3,N
1687380155.8,286046998.6,N
1687380175.6,286046999.4,N
1687380195.5,286046998.5,N
1687380215.3,286046998.6,N
1687380235.2,286047000.9,N
1687380255.9,286047001.2,N
1687380275.7,286046998.6,N
1687380295.6,286046998.7,N
1687380315.4,286046999.3,N
1687380335.2,286046996.5,N
1687380355.1,286046999.3,N
1687380356.0,286046999.3,N
1687380375.8,286046998.9,N
1687380395.7,286046999.0,N
1687380415.5,286046999.4,N
1687380435.3,286046996.7,N
1687380455.2,286046998.7,N
1687380475.0,286046998.7,N
1687380475.9,286046998.7,N
1687380495.8,286046998.3,N
1687380515.6,286047001.1,N
1687380535.4,286047001.1,N
1687380555.3,286047001.2,N
1687380575.1,286046998.1,N
1687380595.9,286046998.6,N
1687380615.7,286047001.1,N
1687380635.5,286046999.4,N
1687380655.4,286046999.4,N
1687380675.2,286046999.3,N
1687380695.0,286046998.2,N
1687380696.0,286046998.2,N
1687380715.8,286047001.2,N
1687380735.6,286046999.4,N
1687380755.5,286046999.6,N
1687380775.3,286046999.6,N
1687380795.1,286046999.5,N
1687380815.9,286046998.9,N
1687380835.7,286046998.3,N
1687380855.6,286046998.1,N
1687380875.4,286046998.2,N
1687380895.2,286047001.0,N
1687380915.1,286047000.6,N
1687380916.0,286047000.6,N
1687380935.8,286046998.1,N
1687380955.7,286046999.1,N
1687380975.5,286046999.3,N
1687380995.4,286046997.0,N
1687381015.2,286046997.6,N
1687381035.0,286046999.2,N
1687381035.9,286046999.2,N
1687381055.8,286046999.6,N
1687381075.6,286046999.4,N
1687381095.5,286046999.3,N
1687381115.3,286046999.4,N
1687381135.2,286046999.4,N
1687381155.9,286046999.0,N
1687381175.7,286046998.8,N
1687381195.6,286046998.3,N
